Location: Tierra del Sol
(32.6128°N, 116.3319°W)
Time: 20:47:18
(UTC-07:00)

Amateur Radio Satellites - All Passes

Search period start: 01 July 2016 20:17
Search period end: 02 July 2016 20:17
Location: Tierra del Sol, 32.6128°N, 116.3319°W

Satellite Date Start Highest point End Downlink Frequencies (MHz)
Time Altitude Azimuth
RS-15 01 Jul 20:18:42 20:30:56 61° 57° (ENE) 20:42:56 29.354- 29.394
STRAND 1 01 Jul 20:28:05 20:33:05 52° 287° (WNW) 20:38:02 437.568
CUBEBUG 2 01 Jul 20:28:41 20:32:37 43° 74° (ENE) 20:36:40 437.445
DOVE 4 01 Jul 20:30:18 20:31:40 11° 266° (W) 20:33:01 437.250
COMPASS 1 01 Jul 20:35:19 20:39:32 87° 78° (ENE) 20:43:47 437.405
ZACube-1 01 Jul 20:39:32 20:42:56 24° 71° (ENE) 20:46:25 437.345
Oscar 11 01 Jul 20:41:56 20:45:40 29° 72° (ENE) 20:49:26 145.826/435.025
PRISM 01 Jul 20:44:07 20:47:41 29° 98° (E) 20:51:15 437.425
CANX-2 01 Jul 20:48:39 20:52:13 26° 264° (W) 20:55:49 2200.000
AUBIESAT-1 01 Jul 20:49:28 20:52:37 46° 71° (ENE) 20:55:49 437.475
Cosmos 2499 01 Jul 20:49:33 20:53:52 15° 294° (WNW) 20:58:20 435.465 / 435.565
FUNcube-1 01 Jul 20:54:35 20:58:23 34° 73° (ENE) 21:02:17 145.935
CINEMA 3 01 Jul 20:57:19 21:00:22 20° 265° (W) 21:03:27 145.822/145.860
SEEDS 01 Jul 21:05:06 21:08:42 27° 263° (W) 21:12:19 437.485
UWE-3 01 Jul 21:08:02 21:12:12 90° 200° (SSW) 21:16:30 435.000/436.395/437.385
CUTE 1.7 + AOD 2 01 Jul 21:08:42 21:11:35 18° 266° (W) 21:14:30 437.475
DELFI C3 01 Jul 21:14:37 21:18:04 28° 73° (ENE) 21:21:33 145.870
AO-85 01 Jul 21:17:15 21:22:10 34° 304° (NW) 21:26:58 145.980
HUMSAT D 01 Jul 21:21:33 21:24:02 16° 69° (ENE) 21:26:33 437.325/437.525
HO-68 01 Jul 21:27:59 21:33:18 22° 265° (W) 21:38:40 435.675
M-CUBED/EXP-1 PRIME 01 Jul 21:32:33 21:35:19 25° 257° (WSW) 21:38:06 437.505
AAUSAT CUBESAT 2 01 Jul 21:34:00 21:37:17 22° 264° (W) 21:40:35 437.432
CUBEBUG 2 01 Jul 22:08:16 22:09:28 11° 268° (W) 22:10:41 437.445
ESTCUBE 1 01 Jul 22:13:28 22:14:28 11° 66° (ENE) 22:15:29 437.505/2401.250
ZACube-1 01 Jul 22:15:57 22:19:08 21° 265° (W) 22:22:23 437.345
Oscar 11 01 Jul 22:18:43 22:21:46 19° 265° (W) 22:24:50 145.826/435.025
PRISM 01 Jul 22:20:11 22:22:43 16° 291° (WNW) 22:25:15 437.425
RS-15 01 Jul 22:32:09 22:42:42 35° 255° (WSW) 22:53:06 29.354- 29.394
FUNcube-1 01 Jul 22:32:22 22:34:43 15° 267° (W) 22:37:06 145.935
TIGRISAT 01 Jul 22:32:56 22:37:12 34° 98° (E) 22:41:27 435.000
CUBEBUG 1 01 Jul 22:38:05 22:40:06 13° 67° (ENE) 22:42:07 437.445
UNISAT 6 01 Jul 22:39:11 22:43:40 43° 99° (E) 22:48:07 437.425
DELFI C3 01 Jul 22:50:22 22:52:54 16° 265° (W) 22:55:28 145.870
VELOX 1 01 Jul 22:54:53 22:58:02 19° 69° (ENE) 23:01:10 145.980
HUMSAT D 01 Jul 22:55:34 22:59:20 33° 262° (W) 23:03:10 437.325/437.525
Cosmos 2491 01 Jul 22:56:47 23:02:12 18° 81° (E) 23:07:35 435.465 / 435.565
SPROUT 01 Jul 23:11:43 23:13:03 11° 67° (ENE) 23:14:23 437.525
UKube-1 01 Jul 23:15:35 23:18:43 20° 69° (ENE) 23:21:52 .
ANTELSAT 01 Jul 23:18:43 23:23:22 66° 284° (WNW) 23:28:01 437.575/2403.000
AISAT 01 Jul 23:34:49 23:39:10 62° 75° (ENE) 23:43:30 437.250
NANOSAT C BR1 01 Jul 23:39:45 23:43:26 28° 97° (E) 23:47:05 145.865
DX 1 01 Jul 23:41:27 23:45:40 53° 74° (ENE) 23:49:53 434.975-435.025
YUBILEINY 01 Jul 23:44:11 23:53:02 70° 82° (E) 00:01:48 435.215
QB50P1 01 Jul 23:44:48 23:48:41 34° 98° (E) 23:52:35 145.935-145.965
ESTCUBE 1 01 Jul 23:46:15 23:50:43 59° 259° (W) 23:55:13 437.505/2401.250
POPSAT HIP 1 01 Jul 23:48:20 23:52:18 37° 99° (E) 23:56:16 437.405
DUCHIFAT 1 01 Jul 23:58:07 00:02:11 44° 99° (E) 00:06:14 145.980
QB50P2 02 Jul 00:01:27 00:05:41 60° 101° (ESE) 00:09:54 145.880/145.840
50 SAT 02 Jul 00:03:25 00:06:59 47° 260° (W) 00:10:35 437.505
POLYITAN 1 02 Jul 00:04:04 00:08:19 62° 100° (E) 00:12:34 437.675
TIGRISAT 02 Jul 00:10:16 00:13:35 19° 291° (WNW) 00:16:54 435.000
CUBEBUG 1 02 Jul 00:11:49 00:15:58 43° 261° (W) 00:20:07 437.445
TISAT 1 02 Jul 00:16:43 00:19:12 16° 69° (ENE) 00:21:40 437.305
UNISAT 6 02 Jul 00:17:13 00:19:58 16° 292° (WNW) 00:22:44 437.425
PCSat 02 Jul 00:17:31 00:21:51 25° 107° (ESE) 00:26:13 145.827
SO-50 02 Jul 00:21:47 00:26:25 82° 61° (ENE) 00:30:53 436.795
Cosmos 2504 02 Jul 00:24:29 00:32:37 40° 76° (ENE) 00:40:16 435.465 / 435.565
VELOX 1 02 Jul 00:30:25 00:34:15 29° 262° (W) 00:38:06 145.980
BUGSAT 1 02 Jul 00:38:01 00:42:05 57° 101° (E) 00:46:12 437.445
SPROUT 02 Jul 00:44:26 00:48:31 48° 261° (W) 00:52:38 437.525
BEESAT 2 02 Jul 00:45:32 00:47:35 14° 109° (ESE) 00:49:38 435.950
Cosmos 2491 02 Jul 00:49:15 00:58:00 75° 277° (W) 01:06:46 435.465 / 435.565
UKube-1 02 Jul 00:50:53 00:54:33 27° 262° (W) 00:58:13 .
SWISSCUBE 02 Jul 00:59:16 00:59:43 10° 64° (ENE) 01:00:10 437.505
NANOSAT C BR1 02 Jul 01:15:55 01:18:55 19° 290° (WNW) 01:21:56 145.865
BEESAT 02 Jul 01:21:16 01:24:20 17° 67° (ENE) 01:27:22 436.000
QB50P1 02 Jul 01:21:34 01:24:09 16° 291° (WNW) 01:26:44 145.935-145.965
ITUPSAT 1 02 Jul 01:24:42 01:27:57 18° 68° (ENE) 01:31:12 437.325
POPSAT HIP 1 02 Jul 01:25:21 01:27:44 15° 292° (WNW) 01:30:06 437.405
JAS-2 02 Jul 01:32:54 01:38:18 83° 284° (WNW) 01:43:28 435.910
BEESAT 3 02 Jul 01:35:26 01:39:18 64° 299° (WNW) 01:43:13 437.485
DUCHIFAT 1 02 Jul 01:35:41 01:37:27 12° 293° (WNW) 01:39:13 145.980
YUBILEINY 02 Jul 01:42:59 01:48:52 20° 278° (W) 01:54:46 435.215
TISAT 1 02 Jul 01:50:48 01:54:33 32° 262° (W) 01:58:18 437.305
PCSat 02 Jul 02:00:05 02:05:01 35° 301° (WNW) 02:09:58 145.827
O/OREOS (USA 219) 02 Jul 02:06:34 02:11:02 68° 290° (WNW) 02:15:31 437.305
Oscar 19 02 Jul 02:12:37 02:17:46 85° 103° (ESE) 02:22:54 437.125/150
Cosmos 2504 02 Jul 02:17:59 02:25:47 38° 274° (W) 02:33:14 435.465 / 435.565
BEESAT 2 02 Jul 02:21:25 02:25:03 35° 302° (WNW) 02:28:44 435.950
SWISSCUBE 02 Jul 02:32:05 02:36:50 70° 258° (WSW) 02:41:39 437.505
ITAMSAT 1 02 Jul 02:44:39 02:48:41 22° 96° (E) 02:52:40 435.822/435.867
KKS-1 02 Jul 02:44:51 02:46:57 13° 67° (ENE) 02:49:03 437.445
Cosmos 2491 02 Jul 02:54:22 02:56:16 11° 295° (WNW) 02:58:11 435.465 / 435.565
BEESAT 02 Jul 02:57:15 03:01:44 40° 261° (W) 03:06:15 436.000
Gurwin Techsat 1B 02 Jul 03:00:58 03:06:17 78° 285° (WNW) 03:11:35 435.225
ITUPSAT 1 02 Jul 03:01:00 03:05:27 38° 261° (W) 03:09:56 437.325
MOZHAYETS 4 02 Jul 03:02:22 03:05:43 20° 69° (ENE) 03:09:05
AIST 1 02 Jul 03:03:03 03:05:32 15° 75° (ENE) 03:08:01
STARS 02 Jul 03:07:10 03:08:20 11° 66° (ENE) 03:09:30 437.465
PHONESAT 2.4 02 Jul 03:28:33 03:30:38 17° 143° (SE) 03:32:42 2401.200-2431.200
AIST 2 02 Jul 03:36:04 03:40:07 62° 115° (ESE) 03:44:11 435.215
GONETS M04 02 Jul 03:49:00 03:53:32 15° 67° (ENE) 03:58:03
KKS-1 02 Jul 04:18:53 04:23:05 44° 260° (W) 04:27:20 437.445
AO-7 02 Jul 04:22:22 04:30:43 68° 105° (ESE) 04:39:00 29.400- 29.500
ITAMSAT 1 02 Jul 04:23:27 04:28:09 35° 289° (WNW) 04:32:50 435.822/435.867
MOZHAYETS 4 02 Jul 04:38:32 04:42:37 31° 263° (W) 04:46:45
AIST 1 02 Jul 04:39:24 04:43:10 31° 269° (W) 04:46:56
STARS 02 Jul 04:39:56 04:44:11 53° 260° (W) 04:48:27 437.465
CUBESAT XI-V 02 Jul 04:40:14 04:44:06 26° 71° (ENE) 04:47:59 437.345
Cosmos 2499 02 Jul 04:49:37 04:56:37 27° 72° (ENE) 05:03:12 435.465 / 435.565
PHONESAT 2.4 02 Jul 05:03:58 05:07:00 61° 336° (NNW) 05:10:02 2401.200-2431.200
AIST 2 02 Jul 05:17:57 05:18:58 11° 311° (NW) 05:19:59 435.215
HORYU 2 02 Jul 05:39:17 05:43:48 87° 101° (ESE) 05:48:18 437.375
GONETS M04 02 Jul 05:42:37 05:51:24 89° 272° (W) 06:00:12
NOAA 18 02 Jul 05:49:26 05:52:30 15° 94° (E) 05:55:32 137.9125
AO-85 02 Jul 05:53:35 05:57:57 67° 61° (ENE) 06:01:56 145.980
CUTE-I 02 Jul 05:54:53 05:58:00 15° 94° (E) 06:01:05 437.470
BRITE-PL 02 Jul 06:00:43 06:03:59 22° 97° (E) 06:07:20 437.365/2234.400
STRAND 1 02 Jul 06:03:04 06:05:37 14° 65° (ENE) 06:08:11 437.568
DANDE 02 Jul 06:04:51 06:09:00 15° 84° (E) 06:13:02 436.750
NOAA 15 02 Jul 06:08:24 06:12:59 30° 98° (E) 06:17:34 137.62
GOMX 1 02 Jul 06:14:21 06:16:30 13° 95° (E) 06:18:43 467.674
AO-7 02 Jul 06:16:31 06:22:43 24° 301° (WNW) 06:28:54 29.400- 29.500
CUBESAT XI-V 02 Jul 06:17:33 06:21:22 25° 264° (W) 06:25:12 437.345
LilacSat-2 02 Jul 06:19:19 06:22:27 23° 96° (E) 06:25:35 437.200
PHONESAT 2.4 02 Jul 06:41:35 06:43:58 20° 352° (N) 06:46:21 2401.200-2431.200
Cosmos 2499 02 Jul 06:41:49 06:50:05 54° 270° (W) 06:57:47 435.465 / 435.565
CUSAT 1 02 Jul 06:42:53 06:50:32 62° 95° (E) 06:56:58 437.405
ISS 02 Jul 06:44:44 06:47:58 88° 315° (NW) 06:51:14 145.825
DOVE 4 02 Jul 06:53:08 06:56:10 17° 96° (E) 06:59:18 437.250
Cubesat XI-IV 02 Jul 06:59:53 07:05:17 74° 102° (ESE) 07:10:38 437.490
HO-68 02 Jul 07:14:49 07:17:07 12° 91° (E) 07:19:24 435.675
NOAA 18 02 Jul 07:27:59 07:33:25 57° 287° (WNW) 07:38:50 137.9125
PRISM 02 Jul 07:30:50 07:32:40 13° 67° (ENE) 07:34:30 437.425
CUTE-I 02 Jul 07:33:04 07:38:16 52° 287° (WNW) 07:43:26 437.470
BRITE-PL 02 Jul 07:39:08 07:42:23 22° 288° (WNW) 07:45:42 437.365/2234.400
STRAND 1 02 Jul 07:39:11 07:44:14 58° 259° (W) 07:49:19 437.568
DANDE 02 Jul 07:42:35 07:51:02 87° 96° (E) 07:58:48 436.750
GONETS M04 02 Jul 07:43:09 07:46:54 13° 281° (W) 07:50:40
NOAA 15 02 Jul 07:48:19 07:52:36 26° 291° (WNW) 07:56:52 137.62
GOMX 1 02 Jul 07:50:38 07:54:40 40° 286° (WNW) 07:58:56 467.674
LilacSat-2 02 Jul 07:53:50 07:56:34 18° 289° (WNW) 07:59:17 437.200
PHONESAT 2.4 02 Jul 08:18:48 08:21:12 20° 9° (N) 08:23:36 2401.200-2431.200
COMPASS 1 02 Jul 08:23:40 08:26:39 19° 95° (E) 08:29:37 437.405
ISS 02 Jul 08:24:20 08:24:50 10° 331° (NNW) 08:25:21 145.825
CUBEBUG 2 02 Jul 08:24:53 08:27:36 15° 94° (E) 08:30:19 437.445
CUSAT 1 02 Jul 08:27:13 08:32:38 21° 285° (WNW) 08:37:29 437.405
DOVE 4 02 Jul 08:29:48 08:33:51 34° 286° (WNW) 08:38:07 437.250
CANX-2 02 Jul 08:37:21 08:41:38 75° 101° (ESE) 08:45:51 2200.000
Cubesat XI-IV 02 Jul 08:42:46 08:44:38 12° 297° (WNW) 08:46:31 437.490
FUNcube-1 02 Jul 08:49:51 08:50:29 10° 92° (E) 08:51:06 145.935
SEEDS 02 Jul 08:52:45 08:56:57 69° 101° (E) 09:01:07 437.485
CINEMA 3 02 Jul 08:54:18 08:58:59 69° 283° (WNW) 09:03:50 145.822/145.860
CUTE 1.7 + AOD 2 02 Jul 08:56:32 09:00:48 73° 283° (WNW) 09:05:00 437.475
HO-68 02 Jul 08:58:17 09:05:31 89° 101° (ESE) 09:12:44 435.675
UWE-3 02 Jul 09:02:16 09:06:13 27° 96° (E) 09:10:11 435.000/436.395/437.385
PRISM 02 Jul 09:03:39 09:07:34 40° 261° (W) 09:11:29 437.425
M-CUBED/EXP-1 PRIME 02 Jul 09:14:32 09:17:59 25° 102° (ESE) 09:21:36 437.505
AAUSAT CUBESAT 2 02 Jul 09:19:42 09:23:52 79° 102° (ESE) 09:27:59 437.432
TIGRISAT 02 Jul 09:28:24 09:31:08 17° 68° (ENE) 09:33:55 435.000
DANDE 02 Jul 09:29:16 09:34:22 17° 289° (WNW) 09:39:13 436.750
UNISAT 6 02 Jul 09:34:25 09:37:40 21° 70° (ENE) 09:40:58 437.425
PHONESAT 2.4 02 Jul 09:55:06 09:58:09 64° 25° (NNE) 10:01:11 2401.200-2431.200
BEESAT 3 02 Jul 09:57:42 10:00:23 17° 53° (NE) 10:03:03 437.485
COMPASS 1 02 Jul 09:58:41 10:02:09 26° 288° (WNW) 10:05:35 437.405
CUBEBUG 2 02 Jul 09:59:53 10:04:19 43° 286° (WNW) 10:08:48 437.445
AUBIESAT-1 02 Jul 10:05:12 10:09:22 85° 107° (ESE) 10:13:48 437.475
ZACube-1 02 Jul 10:07:14 10:11:50 82° 283° (WNW) 10:16:25 437.345
Oscar 11 02 Jul 10:08:55 10:13:15 72° 283° (WNW) 10:17:33 145.826/435.025
ANTELSAT 02 Jul 10:12:53 10:17:07 61° 75° (ENE) 10:21:28 437.575/2403.000
FUNcube-1 02 Jul 10:22:29 10:26:59 57° 284° (WNW) 10:31:27 145.935
NANOSAT C BR1 02 Jul 10:29:33 10:31:05 12° 67° (ENE) 10:32:39 145.865
DELFI C3 02 Jul 10:30:46 10:34:45 90° 49° (NE) 10:38:42 145.870
QB50P1 02 Jul 10:34:15 10:36:34 15° 68° (ENE) 10:38:54 145.935-145.965
RS-15 02 Jul 10:35:37 10:46:32 60° 111° (ESE) 10:58:03 29.354- 29.394
POPSAT HIP 1 02 Jul 10:37:39 10:40:11 16° 69° (ENE) 10:42:43 437.405
UWE-3 02 Jul 10:38:48 10:42:30 24° 289° (WNW) 10:46:13 435.000/436.395/437.385
HUMSAT D 02 Jul 10:42:59 10:47:12 52° 100° (E) 10:51:22 437.325/437.525
BEESAT 2 02 Jul 10:43:31 10:47:02 29° 57° (ENE) 10:50:32 435.950
DUCHIFAT 1 02 Jul 10:46:33 10:49:24 18° 69° (ENE) 10:52:15 145.980
YUBILEINY 02 Jul 10:48:18 10:52:10 14° 79° (ENE) 10:56:02 435.215
HO-68 02 Jul 10:48:38 10:52:15 15° 301° (WNW) 10:55:52 435.675
M-CUBED/EXP-1 PRIME 02 Jul 10:49:04 10:52:22 23° 292° (WNW) 10:55:49 437.505
QB50P2 02 Jul 10:50:08 10:53:32 24° 71° (ENE) 10:56:56 145.880/145.840
PCSat 02 Jul 10:51:51 10:57:16 71° 63° (ENE) 11:02:39 145.827
POLYITAN 1 02 Jul 10:52:45 10:56:09 25° 71° (ENE) 10:59:36 437.675
TIGRISAT 02 Jul 11:03:38 11:07:30 33° 262° (W) 11:11:28 435.000
Cosmos 2491 02 Jul 11:05:32 11:13:47 45° 78° (ENE) 11:22:00 435.465 / 435.565
UNISAT 6 02 Jul 11:10:35 11:14:12 26° 264° (W) 11:17:52 437.425
BUGSAT 1 02 Jul 11:24:09 11:27:10 21° 71° (ENE) 11:30:11 437.445
AISAT 02 Jul 11:30:38 11:33:27 17° 95° (E) 11:36:16 437.250
PHONESAT 2.4 02 Jul 11:32:30 11:34:30 16° 218° (SW) 11:36:29 2401.200-2431.200
BEESAT 3 02 Jul 11:34:36 11:38:06 31° 248° (WSW) 11:41:34 437.485
DX 1 02 Jul 11:35:52 11:37:54 13° 94° (E) 11:39:54 434.975-435.025
50 SAT 02 Jul 11:37:35 11:40:11 18° 96° (E) 11:42:46 437.505
JAS-2 02 Jul 11:39:01 11:45:20 30° 69° (ENE) 11:51:10 435.910
ESTCUBE 1 02 Jul 11:43:23 11:47:35 39° 99° (E) 11:51:46 437.505/2401.250
NANOSAT C BR1 02 Jul 12:02:24 12:06:23 44° 261° (W) 12:10:24 145.865
AIST 2 02 Jul 12:03:33 12:05:06 12° 50° (NE) 12:06:38 435.215
CUBEBUG 1 02 Jul 12:04:40 12:08:49 45° 99° (E) 12:12:58 437.445
QB50P1 02 Jul 12:08:10 12:12:00 35° 262° (W) 12:15:52 145.935-145.965
POPSAT HIP 1 02 Jul 12:11:54 12:15:40 32° 262° (W) 12:19:27 437.405
O/OREOS (USA 219) 02 Jul 12:20:59 12:25:29 77° 252° (WSW) 12:29:58 437.305
HUMSAT D 02 Jul 12:21:12 12:22:18 11° 293° (WNW) 12:23:23 437.325/437.525
DUCHIFAT 1 02 Jul 12:21:17 12:24:51 28° 263° (W) 12:28:26 145.980
BEESAT 2 02 Jul 12:21:59 12:24:36 17° 250° (WSW) 12:27:14 435.950
VELOX 1 02 Jul 12:24:14 12:28:38 72° 102° (ESE) 12:33:01 145.980
QB50P2 02 Jul 12:26:05 12:29:14 21° 264° (W) 12:32:25 145.880/145.840
POLYITAN 1 02 Jul 12:28:47 12:31:53 20° 264° (W) 12:35:00 437.675
SPROUT 02 Jul 12:34:47 12:38:48 38° 99° (E) 12:42:48 437.525
PCSat 02 Jul 12:38:20 12:39:57 11° 258° (WSW) 12:41:35 145.827
YUBILEINY 02 Jul 12:38:55 12:47:38 89° 274° (W) 12:56:26 435.215
UKube-1 02 Jul 12:41:38 12:45:55 68° 101° (E) 12:50:12 .
Gurwin Techsat 1B 02 Jul 12:42:07 12:43:29 11° 63° (ENE) 12:44:49 435.225
JUGNU 02 Jul 12:48:36 12:52:14 17° 167° (SSE) 12:55:53 437.505
RS-15 02 Jul 12:49:08 12:59:27 38° 312° (NW) 13:10:22 29.354- 29.394
Cosmos 2504 02 Jul 12:56:41 13:03:52 36° 86° (E) 13:11:26 435.465 / 435.565
BUGSAT 1 02 Jul 12:59:17 13:02:24 22° 264° (W) 13:05:32 437.445
Cosmos 2491 02 Jul 13:02:51 13:10:14 32° 274° (W) 13:17:38 435.465 / 435.565
AISAT 02 Jul 13:06:01 13:09:58 33° 288° (WNW) 13:13:54 437.250
DX 1 02 Jul 13:10:08 13:14:12 41° 287° (WNW) 13:18:16 434.975-435.025
50 SAT 02 Jul 13:11:00 13:13:44 20° 289° (WNW) 13:16:26 437.505
ISS 02 Jul 13:16:57 13:18:48 14° 32° (NNE) 13:20:40 145.825
ESTCUBE 1 02 Jul 13:21:26 13:24:01 15° 292° (WNW) 13:26:35 437.505/2401.250
JAS-2 02 Jul 13:22:47 13:30:03 46° 260° (W) 13:36:46 435.910
Oscar 19 02 Jul 13:24:48 13:29:56 78° 75° (ENE) 13:35:04 437.125/150
AO-7 02 Jul 13:31:47 13:33:06 10° 51° (NE) 13:34:23 29.400- 29.500
TISAT 1 02 Jul 13:38:37 13:42:43 50° 100° (E) 13:46:50 437.305
AIST 2 02 Jul 13:39:49 13:43:54 56° 245° (WSW) 13:47:57 435.215
CUBEBUG 1 02 Jul 13:42:53 13:44:40 12° 293° (WNW) 13:46:27 437.445
ITAMSAT 1 02 Jul 13:58:26 14:02:24 22° 68° (ENE) 14:06:23 435.822/435.867
SPROUT 02 Jul 14:12:03 14:14:23 14° 292° (WNW) 14:16:41 437.525
SRMSAT 02 Jul 14:13:00 14:15:15 12° 163° (SSE) 14:17:30 437.500
Gurwin Techsat 1B 02 Jul 14:17:23 14:22:42 77° 258° (WSW) 14:28:02 435.225
SO-50 02 Jul 14:30:54 14:35:46 79° 118° (ESE) 14:40:41 436.795
JUGNU 02 Jul 14:36:01 14:40:38 23° 177° (S) 14:45:16 437.505
SWISSCUBE 02 Jul 14:36:57 14:41:30 42° 100° (E) 14:46:00 437.505
YUBILEINY 02 Jul 14:41:11 14:45:32 14° 293° (WNW) 14:49:56 435.215
Cosmos 2504 02 Jul 14:49:27 14:56:59 41° 284° (WNW) 15:05:02 435.465 / 435.565
ISS 02 Jul 14:52:16 14:55:28 52° 227° (SW) 14:58:38 145.825
BEESAT 02 Jul 15:01:30 15:06:17 73° 102° (ESE) 15:11:03 436.000
ITUPSAT 1 02 Jul 15:05:35 15:10:24 79° 103° (ESE) 15:15:10 437.325
RS-15 02 Jul 15:12:49 15:17:07 12° 344° (NNW) 15:21:30 29.354- 29.394
AO-7 02 Jul 15:16:02 15:24:11 62° 69° (ENE) 15:32:23 29.400- 29.500
TISAT 1 02 Jul 15:16:50 15:17:53 11° 293° (WNW) 15:18:57 437.305
AIST 1 02 Jul 15:29:20 15:30:27 11° 86° (E) 15:31:35
ITAMSAT 1 02 Jul 15:36:51 15:41:36 36° 262° (W) 15:46:24 435.822/435.867
SRMSAT 02 Jul 15:59:24 16:03:46 21° 172° (S) 16:08:08 437.500
KKS-1 02 Jul 16:14:03 16:18:21 47° 100° (E) 16:22:39 437.445
SO-50 02 Jul 16:14:50 16:16:49 12° 313° (NW) 16:18:45 436.795
SWISSCUBE 02 Jul 16:15:57 16:18:53 16° 293° (WNW) 16:21:48 437.505
JUGNU 02 Jul 16:24:39 16:29:04 21° 187° (S) 16:33:30 437.505
HORYU 2 02 Jul 16:32:45 16:36:57 44° 73° (ENE) 16:41:10 437.375
STARS 02 Jul 16:33:46 16:37:53 37° 99° (E) 16:41:59 437.465
MOZHAYETS 4 02 Jul 16:37:25 16:42:04 86° 98° (E) 16:46:40
GONETS M04 02 Jul 16:44:36 16:50:25 20° 82° (E) 16:56:12
AIST 1 02 Jul 17:03:28 17:07:34 43° 279° (W) 17:11:40
BRITE-PL 02 Jul 17:07:34 17:10:57 19° 71° (ENE) 17:14:10 437.365/2234.400
AO-7 02 Jul 17:10:58 17:17:17 24° 264° (W) 17:23:41 29.400- 29.500
NOAA 18 02 Jul 17:11:09 17:14:56 19° 66° (ENE) 17:18:45 137.9125
CUTE-I 02 Jul 17:12:28 17:15:53 17° 66° (ENE) 17:19:19 437.470
Cosmos 2499 02 Jul 17:20:26 17:26:43 24° 82° (E) 17:33:13 435.465 / 435.565
NOAA 15 02 Jul 17:24:03 17:28:42 32° 70° (ENE) 17:33:20 137.62
CUSAT 1 02 Jul 17:27:37 17:27:45 10° 70° (ENE) 17:27:55 437.405
RS-15 02 Jul 17:31:37 17:37:51 15° 24° (NNE) 17:44:04 29.354- 29.394
SRMSAT 02 Jul 17:47:43 17:52:21 23° 183° (S) 17:56:59 437.500
KKS-1 02 Jul 17:52:29 17:54:28 13° 293° (WNW) 17:56:26 437.445
STARS 02 Jul 18:11:16 18:13:53 16° 292° (WNW) 18:16:30 437.465
HORYU 2 02 Jul 18:11:44 18:13:40 13° 266° (W) 18:15:36 437.375
JUGNU 02 Jul 18:14:55 18:17:27 13° 196° (SSW) 18:19:59 437.505
Cubesat XI-IV 02 Jul 18:17:16 18:22:35 77° 75° (ENE) 18:27:58 437.490
CUBESAT XI-V 02 Jul 18:17:38 18:22:13 69° 284° (WNW) 18:26:46 437.345
LilacSat-2 02 Jul 18:30:05 18:33:50 72° 259° (W) 18:37:38 437.200
DANDE 02 Jul 18:31:18 18:34:52 31° 74° (ENE) 18:37:42 436.750
GONETS M04 02 Jul 18:37:40 18:46:19 68° 278° (W) 18:54:59
BRITE-PL 02 Jul 18:44:36 18:49:12 36° 261° (W) 18:53:30 437.365/2234.400
NOAA 18 02 Jul 18:49:58 18:55:11 46° 260° (W) 19:00:27 137.9125
CUTE-I 02 Jul 18:50:19 18:55:28 49° 260° (W) 19:00:41 437.470
GOMX 1 02 Jul 18:54:05 18:58:39 65° 259° (W) 19:02:58 467.674
NOAA 15 02 Jul 19:04:07 19:08:25 25° 263° (W) 19:12:43 137.62
CUSAT 1 02 Jul 19:08:31 19:09:41 12° 272° (W) 19:10:50 437.405
Cosmos 2499 02 Jul 19:10:51 19:19:02 61° 279° (W) 19:27:44 435.465 / 435.565
HO-68 02 Jul 19:21:56 19:28:32 42° 68° (ENE) 19:35:10 435.675
CANX-2 02 Jul 19:25:46 19:29:28 29° 72° (ENE) 19:33:12 2200.000
DOVE 4 02 Jul 19:30:48 19:35:02 55° 260° (W) 19:39:08 437.250
SRMSAT 02 Jul 19:37:10 19:40:55 17° 192° (SSW) 19:44:40 437.500
SEEDS 02 Jul 19:40:15 19:43:47 26° 72° (ENE) 19:47:19 437.485
RS-15 02 Jul 19:42:47 19:54:36 48° 53° (NE) 20:06:13 29.354- 29.394
CUTE 1.7 + AOD 2 02 Jul 19:44:26 19:48:29 42° 74° (ENE) 19:52:32 437.475
CINEMA 3 02 Jul 19:51:47 19:55:50 60° 76° (ENE) 19:59:57 145.822/145.860
STRAND 1 02 Jul 19:54:12 19:59:21 70° 102° (ESE) 20:04:26 437.568
UWE-3 02 Jul 19:57:06 19:58:37 12° 67° (ENE) 20:00:08 435.000/436.395/437.385
M-CUBED/EXP-1 PRIME 02 Jul 20:00:04 20:00:40 10° 64° (ENE) 20:01:15 437.505
AO-85 02 Jul 20:01:48 20:07:13 71° 116° (ESE) 20:12:32 145.980
AAUSAT CUBESAT 2 02 Jul 20:05:38 20:09:12 28° 72° (ENE) 20:12:47 437.432
